FW2552 Weather Reports


Display with metric or nautical units.
time (UTC)temp
F
wind
direction
speed
MPH
gust
MPH
rain 1hr
in
rain 24hr
in
rain mn
in
humidity
%
barometer
mb
20260906162703 97 10 5.0 8.0 0.00 0.00 0.00 38 1017.6
20260906162203 96 106 4.0 12.0 0.00 0.00 0.00 39 1017.7
20260906161703 96 100 5.0 12.0 0.00 0.00 0.00 39 1017.7
20260906161204 96 106 3.0 10.0 0.00 0.00 0.00 40 1017.7
20260906160203 95 126 3.0 10.0 0.00 0.00 0.00 42 1017.7
20260906155704 95 110 6.0 10.0 0.00 0.00 0.00 41 1017.6
20260906155203 94 35 3.0 6.0 0.00 0.00 0.00 42 1017.6
20260906154704 93 217 2.0 8.0 0.00 0.00 0.00 44 1017.6
20260906154204 93 68 2.0 8.0 0.00 0.00 0.00 45 1017.5
20260906152203 91 101 5.0 8.0 0.00 0.00 0.00 46 1017.3
20260906151704 89 130 5.0 9.0 0.00 0.00 0.00 50 1017.2
20260906151203 89 106 6.0 10.0 0.00 0.00 0.00 50 1017.1
20260906150703 88 95 5.0 10.0 0.00 0.00 0.00 51 1017.3
20260906150203 88 130 7.0 14.0 0.00 0.00 0.00 51 1017.3
20260906145203 88 103 7.0 10.0 0.00 0.00 0.00 52 1017.1
20260906144704 87 92 3.0 10.0 0.00 0.00 0.00 52 1017.1
20260906143703 86 124 8.0 13.0 0.00 0.00 0.00 56 1017.2
20260906142704 86 96 6.0 10.0 0.00 0.00 0.00 57 1017.2
20260906142203 85 109 5.0 13.0 0.00 0.00 0.00 58 1017.1
20260906141704 85 117 7.0 13.0 0.00 0.00 0.00 57 1017.2
20260906141204 84 69 2.0 13.0 0.00 0.00 0.00 59 1017.0
20260906140703 85 115 7.0 14.0 0.00 0.00 0.00 58 1017.1
20260906135703 85 96 3.0 9.0 0.00 0.00 0.00 58 1017.1
20260906134704 85 129 5.0 10.0 0.00 0.00 0.00 58 1017.1
20260906133704 84 120 3.0 10.0 0.00 0.00 0.00 60 1016.9
20260906133204 83 98 5.0 10.0 0.00 0.00 0.00 60 1017.1
20260906132704 83 114 3.0 10.0 0.00 0.00 0.00 61 1016.9
20260906132204 83 94 4.0 10.0 0.00 0.00 0.00 61 1016.8
20260906131703 83 92 5.0 8.0 0.00 0.00 0.00 61 1016.8
20260906131203 82 66 2.0 6.0 0.00 0.00 0.00 62 1016.8
20260906130704 82 75 2.0 7.0 0.00 0.00 0.00 63 1016.6
20260906130204 81 96 3.0 7.0 0.00 0.00 0.00 63 1016.6
20260906125704 81 107 3.0 7.0 0.00 0.00 0.00 64 1016.7
20260906125203 80 285 0.0 3.0 0.00 0.00 0.00 66 1016.5
20260906124704 79 51 1.0 3.0 0.00 0.00 0.00 67 1016.4
20260906123703 78 89 0.0 3.0 0.00 0.00 0.00 69 1016.3
20260906123203 78 76 0.0 3.0 0.00 0.00 0.00 69 1016.2
20260906122703 77 55 0.0 3.0 0.00 0.00 0.00 71 1016.1
20260906122204 76 122 2.0 5.0 0.00 0.00 0.00 72 1016.0
20260906121703 76 115 1.0 2.0 0.00 0.00 0.00 73 1016.0
20260906121204 76 106 0.0 3.0 0.00 0.00 0.00 73 1016.0
20260906120704 75 81 0.0 2.0 0.00 0.00 0.00 74 1016.0
20260906120203 75 107 0.0 2.0 0.00 0.00 0.00 74 1016.1
20260906115703 75 102 1.0 2.0 0.00 0.00 0.00 74 1015.9
20260906115204 75 72 0.0 3.0 0.00 0.00 0.00 74 1016.0
20260906114703 75 101 0.0 3.0 0.00 0.00 0.00 74 1015.9
20260906113704 75 90 1.0 2.0 0.00 0.00 0.00 73 1016.2
20260906113203 75 55 1.0 3.0 0.00 0.00 0.00 73 1016.2
20260906112203 75 56 0.0 2.0 0.00 0.00 0.00 74 1016.0
20260906111703 75 33 0.0 0.0 0.00 0.00 0.00 74 1016.0
20260906111204 75 51 0.0 3.0 0.00 0.00 0.00 73 1015.9
20260906110204 75 101 1.0 3.0 0.00 0.00 0.00 73 1016.0
20260906105203 75 62 0.0 2.0 0.00 0.00 0.00 72 1016.1
20260906104204 75 44 0.0 0.0 0.00 0.00 0.00 72 1016.1
20260906103703 75 82 0.0 0.0 0.00 0.00 0.00 71 1016.0
20260906103204 76 128 0.0 2.0 0.00 0.00 0.00 71 1016.2
20260906102704 76 87 1.0 2.0 0.00 0.00 0.00 70 1015.9
20260906101204 76 54 1.0 3.0 0.00 0.00 0.00 69 1016.0
20260906100204 76 299 1.0 2.0 0.00 0.00 0.00 70 1016.0
20260906095703 76 106 0.0 2.0 0.00 0.00 0.00 70 1016.0
20260906095203 76 95 0.0 2.0 0.00 0.00 0.00 70 1016.1
20260906094704 76 52 0.0 2.0 0.00 0.00 0.00 69 1016.0
20260906093703 76 268 0.0 0.0 0.00 0.00 0.00 70 1016.0
20260906093203 76 53 0.0 0.0 0.00 0.00 0.00 70 1015.7
20260906092203 77 41 0.0 2.0 0.00 0.00 0.00 68 1015.7
20260906091704 77 149 0.0 0.0 0.00 0.00 0.00 69 1015.7
20260906091204 77 45 0.0 2.0 0.00 0.00 0.00 68 1015.7
20260906090703 77 51 0.0 2.0 0.00 0.00 0.00 68 1015.8
20260906090203 78 52 1.0 2.0 0.00 0.00 0.00 67 1015.7
20260906085703 78 97 0.0 2.0 0.00 0.00 0.00 66 1015.6
20260906085203 78 50 0.0 2.0 0.00 0.00 0.00 65 1015.6
20260906084704 79 16 0.0 2.0 0.00 0.00 0.00 64 1015.6
20260906084203 79 64 0.0 2.0 0.00 0.00 0.00 62 1015.5
20260906083203 80 69 0.0 2.0 0.00 0.00 0.00 62 1015.5
20260906082704 80 89 1.0 2.0 0.00 0.00 0.00 61 1015.6
20260906082203 80 279 0.0 2.0 0.00 0.00 0.00 60 1015.4
20260906081703 80 57 1.0 5.0 0.00 0.00 0.00 59 1015.6
20260906081203 79 104 3.0 5.0 0.00 0.00 0.00 61 1015.5
20260906080704 78 100 2.0 3.0 0.00 0.00 0.00 64 1015.6
20260906075703 78 207 0.0 2.0 0.00 0.00 0.00 66 1015.6
20260906075204 78 35 0.0 2.0 0.00 0.00 0.00 66 1015.6
20260906074703 78 93 0.0 2.0 0.00 0.00 0.00 66 1015.6
20260906074203 78 37 0.0 2.0 0.00 0.00 0.00 66 1015.6
20260906073703 78 54 0.0 2.0 0.00 0.00 0.00 66 1015.6
20260906073203 78 178 0.0 0.0 0.00 0.00 0.00 67 1015.8
20260906072203 78 41 0.0 2.0 0.00 0.00 0.00 66 1015.8
20260906071704 78 47 0.0 2.0 0.00 0.00 0.00 66 1015.7
20260906071203 79 39 0.0 2.0 0.00 0.00 0.00 65 1015.8
20260906070703 79 48 1.0 2.0 0.00 0.00 0.00 65 1015.7
20260906070203 79 161 0.0 0.0 0.00 0.00 0.00 64 1015.8
20260906065703 79 218 0.0 2.0 0.00 0.00 0.00 65 1015.9
20260906065203 79 207 0.0 2.0 0.00 0.00 0.00 65 1016.0
20260906064703 79 140 0.0 2.0 0.00 0.00 0.00 65 1015.9
20260906064204 79 46 0.0 2.0 0.00 0.00 0.00 64 1016.0
20260906063203 80 82 0.0 2.0 0.00 0.00 0.00 61 1016.1
20260906062703 80 93 1.0 2.0 0.00 0.00 0.00 61 1016.0
20260906062203 80 89 0.0 0.0 0.00 0.00 0.00 61 1016.2
20260906061704 80 82 0.0 3.0 0.00 0.00 0.00 61 1016.2
20260906061203 79 94 1.0 3.0 0.00 0.00 0.00 63 1016.2
20260906060703 79 227 0.0 2.0 0.00 0.00 0.00 64 1016.0
20260906060203 79 4 0.0 0.0 0.00 0.00 0.00 64 1016.2
20260906055703 79 25 0.0 2.0 0.00 0.00 0.00 64 1016.1
20260906054703 80 72 0.0 3.0 0.00 0.00 0.00 64 1016.0
20260906054203 80 33 0.0 2.0 0.00 0.00 0.00 63 1016.0
20260906053704 79 96 2.0 2.0 0.00 0.00 0.00 64 1016.0
20260906053203 80 31 0.0 0.0 0.00 0.00 0.00 63 1016.0
20260906052204 80 216 0.0 0.0 0.00 0.00 0.00 63 1015.9
20260906051203 80 51 0.0 0.0 0.00 0.00 0.00 62 1016.0
20260906050704 80 124 0.0 2.0 0.00 0.00 0.00 62 1016.1
20260906050203 80 59 0.0 2.0 0.00 0.00 0.00 61 1016.1
20260906045204 80 77 1.0 2.0 0.00 0.00 0.00 61 1016.1
20260906044703 80 85 0.0 2.0 0.00 0.00 0.00 61 1016.2
20260906044204 81 75 0.0 0.0 0.00 0.00 0.00 61 1016.1
20260906043703 81 107 0.0 0.0 0.00 0.00 0.00 60 1016.3
20260906043203 81 82 0.0 2.0 0.00 0.00 0.00 60 1016.1
20260906042704 81 98 0.0 2.0 0.00 0.00 0.00 60 1016.1
20260906042203 81 66 0.0 2.0 0.00 0.00 0.00 60 1016.1
20260906041704 81 72 0.0 2.0 0.00 0.00 0.00 59 1016.1
20260906041204 81 40 0.0 2.0 0.00 0.00 0.00 59 1016.0
20260906040703 81 63 0.0 2.0 0.00 0.00 0.00 59 1016.1
20260906035703 82 259 0.0 3.0 0.00 0.00 0.00 58 1016.1
20260906035203 82 107 2.0 6.0 0.00 0.00 0.00 57 1015.8
20260906034704 81 99 4.0 6.0 0.00 0.00 0.00 58 1015.9
20260906034203 81 75 0.0 0.0 0.00 0.00 0.00 58 1015.9
20260906033704 81 95 0.0 2.0 0.00 0.00 0.00 58 1015.7
20260906033203 81 279 0.0 2.0 0.00 0.00 0.00 58 1015.7
20260906032203 82 101 0.0 0.0 0.00 0.00 0.00 57 1015.6
20260906031703 82 96 0.0 2.0 0.00 0.00 0.00 57 1015.8
20260906031203 82 75 0.0 3.0 0.00 0.00 0.00 57 1015.7
20260906030703 82 72 0.0 2.0 0.00 0.00 0.00 57 1015.6
20260906025704 82 64 0.0 2.0 0.00 0.00 0.00 57 1015.5
20260906025203 82 83 0.0 2.0 0.00 0.00 0.00 56 1015.4
20260906024704 83 48 0.0 2.0 0.00 0.00 0.00 56 1015.3
20260906023203 83 48 0.0 2.0 0.00 0.00 0.00 55 1015.3
20260906022703 83 43 0.0 2.0 0.00 0.00 0.00 54 1015.3
20260906022203 83 44 0.0 2.0 0.00 0.00 0.00 54 1015.1
20260906020703 84 26 1.0 2.0 0.00 0.00 0.00 53 1015.0
20260906020203 84 103 0.0 2.0 0.00 0.00 0.00 53 1015.0
20260906015704 84 127 0.0 3.0 0.00 0.00 0.00 52 1014.9
20260906015204 85 36 0.0 2.0 0.00 0.00 0.00 52 1014.9
20260906014704 85 59 2.0 2.0 0.00 0.00 0.00 51 1014.7
20260906014203 85 94 0.0 3.0 0.00 0.00 0.00 51 1014.7
20260906013704 85 45 2.0 3.0 0.00 0.00 0.00 51 1014.6
20260906013203 85 43 0.0 2.0 0.00 0.00 0.00 50 1014.4
20260906012704 86 44 1.0 2.0 0.00 0.00 0.00 50 1014.6
20260906011203 86 200 0.0 5.0 0.00 0.00 0.00 48 1014.3
20260906010703 86 237 0.0 7.0 0.00 0.00 0.00 48 1014.3
20260906005703 87 221 2.0 8.0 0.00 0.00 0.00 47 1014.2
20260906004204 87 21 2.0 15.0 0.00 0.00 0.00 48 1014.3
20260906003703 87 148 8.0 20.0 0.00 0.00 0.00 49 1014.6
20260906003203 87 172 5.0 17.0 0.00 0.00 0.00 50 1014.5
20260906002703 87 122 7.0 15.0 0.00 0.00 0.00 50 1014.5
20260906001703 88 115 3.0 8.0 0.00 0.00 0.00 50 1014.4
20260906001203 88 178 3.0 7.0 0.00 0.00 0.00 50 1014.5
20260906000704 89 263 4.0 14.0 0.00 0.00 0.00 48 1014.5
20260906000204 89 157 6.0 17.0 0.00 0.00 0.00 47 1014.6
20260905235704 90 69 2.0 16.0 0.00 0.00 0.00 46 1014.6
20260905235204 91 179 5.0 15.0 0.00 0.00 0.00 44 1014.4
20260905234703 92 159 8.0 20.0 0.00 0.00 0.00 42 1014.5
20260905234204 96 111 6.0 16.0 0.00 0.00 0.00 37 1014.6
20260905233203 97 211 1.0 7.0 0.00 0.00 0.00 35 1014.1
20260905232703 97 105 1.0 5.0 0.00 0.00 0.00 34 1014.1
20260905232204 97 236 0.0 8.0 0.00 0.00 0.00 34 1014.1
20260905231204 98 326 1.0 8.0 0.00 0.00 0.00 33 1014.2
20260905230703 98 3 5.0 8.0 0.00 0.00 0.00 32 1014.1
20260905230203 98 166 2.0 7.0 0.00 0.00 0.00 32 1014.1
20260905225703 98 310 2.0 7.0 0.00 0.00 0.00 33 1014.0
20260905224204 98 195 0.0 2.0 0.00 0.00 0.00 33 1014.1
20260905223703 98 228 0.0 3.0 0.00 0.00 0.00 32 1014.1
20260905223203 98 95 1.0 8.0 0.00 0.00 0.00 31 1014.1
20260905222703 98 94 2.0 7.0 0.00 0.00 0.00 31 1014.0
20260905222203 99 106 5.0 9.0 0.00 0.00 0.00 31 1014.1
20260905221203 100 104 3.0 9.0 0.00 0.00 0.00 30 1013.9
20260905220703 100 111 7.0 12.0 0.00 0.00 0.00 29 1014.2
20260905220204 102 98 5.0 12.0 0.00 0.00 0.00 28 1014.2
20260905215703 103 71 5.0 10.0 0.00 0.00 0.00 27 1014.6
20260905215204 103 99 6.0 14.0 0.00 0.00 0.00 27 1014.3
20260905214703 104 7 2.0 12.0 0.00 0.00 0.00 27 1014.4
20260905214204 104 114 4.0 12.0 0.00 0.00 0.00 27 1014.5
20260905213703 103 57 1.0 6.0 0.00 0.00 0.00 28 1014.3
20260905212704 102 178 2.0 7.0 0.00 0.00 0.00 28 1014.4
20260905212203 101 274 5.0 8.0 0.00 0.00 0.00 30 1014.4
20260905211703 102 22 6.0 9.0 0.00 0.00 0.00 28 1014.6
20260905210703 102 23 7.0 10.0 0.00 0.00 0.00 28 1014.6
20260905210204 102 60 2.0 9.0 0.00 0.00 0.00 28 1014.7
20260905205203 101 320 5.0 7.0 0.00 0.00 0.00 30 1014.9
20260905204703 100 44 2.0 8.0 0.00 0.00 0.00 31 1015.0
20260905204204 100 109 1.0 3.0 0.00 0.00 0.00 30 1015.0
20260905203703 99 175 2.0 6.0 0.00 0.00 0.00 31 1014.8
20260905203203 99 209 1.0 6.0 0.00 0.00 0.00 31 1015.0
20260905202704 100 130 4.0 6.0 0.00 0.00 0.00 30 1015.2
20260905202203 101 31 3.0 5.0 0.00 0.00 0.00 29 1015.3
20260905201703 100 175 1.0 6.0 0.00 0.00 0.00 31 1015.3
20260905201203 100 358 0.0 5.0 0.00 0.00 0.00 30 1015.4
20260905200704 100 28 2.0 6.0 0.00 0.00 0.00 31 1015.3
20260905195703 101 355 1.0 9.0 0.00 0.00 0.00 31 1015.3
20260905194703 102 353 3.0 10.0 0.00 0.00 0.00 28 1015.5
20260905194203 102 281 5.0 10.0 0.00 0.00 0.00 28 1015.5
20260905193704 102 279 4.0 10.0 0.00 0.00 0.00 29 1015.7
20260905192703 100 156 2.0 7.0 0.00 0.00 0.00 32 1015.8
20260905192204 100 28 2.0 5.0 0.00 0.00 0.00 32 1015.9
20260905191704 99 85 2.0 10.0 0.00 0.00 0.00 32 1015.9
20260905191203 100 18 5.0 15.0 0.00 0.00 0.00 31 1016.0
20260905190703 101 125 5.0 15.0 0.00 0.00 0.00 31 1016.1
20260905190203 101 243 5.0 9.0 0.00 0.00 0.00 30 1016.2
20260905185704 101 294 3.0 12.0 0.00 0.00 0.00 31 1016.1
20260905185203 101 164 3.0 10.0 0.00 0.00 0.00 30 1016.3
20260905184703 100 270 7.0 14.0 0.00 0.00 0.00 32 1016.2
20260905184203 100 203 2.0 9.0 0.00 0.00 0.00 32 1016.4
20260905183703 100 141 3.0 9.0 0.00 0.00 0.00 32 1016.5
20260905183204 100 292 3.0 7.0 0.00 0.00 0.00 33 1016.5
20260905182704 98 49 3.0 7.0 0.00 0.00 0.00 34 1016.4
20260905182203 98 344 3.0 6.0 0.00 0.00 0.00 34 1016.6
20260905181703 98 126 3.0 8.0 0.00 0.00 0.00 34 1016.6
20260905181203 99 25 3.0 10.0 0.00 0.00 0.00 33 1016.8
20260905180704 98 29 4.0 10.0 0.00 0.00 0.00 34 1016.7
20260905180203 98 268 1.0 7.0 0.00 0.00 0.00 35 1016.8
20260905175703 97 46 3.0 13.0 0.00 0.00 0.00 35 1016.9
20260905175204 98 279 5.0 8.0 0.00 0.00 0.00 34 1017.3
20260905174703 100 293 2.0 9.0 0.00 0.00 0.00 34 1017.1
20260905174203 100 167 3.0 7.0 0.00 0.00 0.00 33 1017.2
20260905173704 99 4 5.0 10.0 0.00 0.00 0.00 34 1017.2
20260905172703 96 66 0.0 6.0 0.00 0.00 0.00 37 1017.2
20260905172204 96 262 3.0 7.0 0.00 0.00 0.00 36 1017.3
20260905171203 98 35 3.0 7.0 0.00 0.00 0.00 35 1017.6
20260905170704 98 359 3.0 10.0 0.00 0.00 0.00 36 1017.5
20260905170203 98 262 3.0 10.0 0.00 0.00 0.00 36 1017.7
20260905165704 98 44 5.0 9.0 0.00 0.00 0.00 35 1017.8
20260905165203 99 21 1.0 8.0 0.00 0.00 0.00 35 1017.7
20260905164703 99 83 2.0 6.0 0.00 0.00 0.00 35 1017.8
20260905164204 99 185 3.0 8.0 0.00 0.00 0.00 36 1017.8
20260905163704 98 7 5.0 8.0 0.00 0.00 0.00 36 1017.8
20260905163203 98 6 1.0 6.0 0.00 0.00 0.00 36 1017.8